Location: Capvern
(43.1036°N, 0.3160°E)
Time: 18:16:15
(UTC+00:00)

Envisat - Visible Passes

Search period start: 19 January 2022 00:00
Search period end: 29 January 2022 00:00
Orbit: 764 x 766 km, 98.2° (Epoch: 19 January)

Date Brightness Start Highest point End Pass type
(mag) Time Alt. Az. Time Alt. Az. Time Alt. Az.
19 Jan 5.5 03:43:59 10° NE 03:47:22 18° E 03:50:44 10° SE visible
19 Jan 3.0 05:21:45 10° N 05:26:45 57° WNW 05:31:42 10° SSW visible
20 Jan 3.2 04:44:50 10° NNE 04:49:54 66° E 04:54:57 10° S visible
20 Jan 4.4 06:25:11 10° NNW 06:28:23 17° WNW 06:31:34 10° W visible
20 Jan 6.5 17:44:49 10° W 17:44:57 10° W 17:45:06 10° W visible
21 Jan 4.7 04:08:25 10° NE 04:12:53 30° E 04:17:19 10° SSE visible
21 Jan 3.6 05:47:20 10° N 05:51:53 34° WNW 05:56:25 10° SW visible
22 Jan 5.8 03:33:05 10° ENE 03:35:38 14° E 03:38:11 10° ESE visible
22 Jan 2.8 05:10:06 10° N 05:15:12 73° WNW 05:20:14 10° SSW visible
22 Jan 4.8 06:52:54 10° NW 06:53:16 10° NW 06:53:39 10° WNW visible
23 Jan 3.7 04:33:20 10° NNE 04:38:17 52° E 04:43:14 10° S visible
23 Jan 4.2 06:13:12 10° NNW 06:16:55 21° WNW 06:20:38 10° WSW visible
23 Jan 6.1 17:30:49 10° WSW 17:33:13 13° W 17:35:37 10° WNW visible
24 Jan 5.1 03:57:07 10° NE 04:01:11 24° E 04:05:15 10° SSE visible
24 Jan 3.3 05:35:35 10° N 05:40:22 42° WNW 05:45:07 10° SW visible
25 Jan 6.0 03:22:59 10° ENE 03:23:54 10° E 03:24:48 10° E visible
25 Jan 2.9 04:58:29 10° NNE 05:03:36 89° ESE 05:08:41 10° SSW visible
25 Jan 4.7 06:39:40 10° NNW 06:41:52 13° WNW 06:44:03 10° W visible
26 Jan 4.2 04:21:51 10° NNE 04:26:39 41° E 04:31:25 10° SSE visible
26 Jan 3.9 06:01:18 10° N 06:05:27 26° WNW 06:09:35 10° WSW visible
27 Jan 5.4 03:45:56 10° NE 03:49:30 19° E 03:53:02 10° SE visible
27 Jan 3.0 05:23:52 10° N 05:28:50 53° WNW 05:33:45 10° SSW visible
28 Jan 3.1 04:46:55 10° NNE 04:52:00 71° ESE 04:57:04 10° S visible
28 Jan 4.5 06:27:26 10° NNW 06:30:26 16° WNW 06:33:26 10° W visible
